Wind_Speed
26 26 27 28 27 25 23 22 21 20 19 17 17 17 18 19 21 22 22 23 22 20 23 23 20 19 20 21 21 18 16 15 17 20 22 22 24 26 26 25 25 24 24 23 22 21 21 20 18 17 18 20 21 22 22 23 22 22 23 23 23 23
26 26 26 26 26 23 21 20 19 19 18 17 16 17 17 20 22 24 23 23 23 21 22 24 21 20 21 21 22 21 18 16 17 20 23 23 24 27 27 27 26 26 25 24 23 22 21 21 20 18 18 19 20 21 21 22 23 22 22 22 23 22
27 27 26 25 25 23 21 20 19 17 17 15 15 16 17 21 23 25 25 25 24 21 21 23 22 22 23 22 22 22 20 17 17 19 23 25 25 27 28 28 27 27 27 25 24 23 22 21 21 20 19 19 19 20 21 22 22 23 23 22 22 22
27 27 27 26 25 23 22 21 20 17 17 15 14 15 17 21 25 26 26 26 25 23 22 22 22 23 24 23 22 23 22 19 17 18 21 25 25 27 28 28 28 28 28 27 25 25 24 23 22 21 20 20 20 20 21 22 22 23 23 23 22 22
26 27 26 26 25 24 23 22 21 18 17 15 13 14 15 17 24 27 26 27 27 25 24 23 22 22 24 25 24 24 23 20 18 18 19 23 26 26 28 29 28 28 28 28 27 26 25 25 24 22 21 21 20 21 22 22 22 22 23 23 23 22
26 26 26 26 26 25 23 23 21 19 17 15 13 13 12 14 21 25 26 26 28 27 25 24 23 23 24 25 25 24 24 22 20 19 19 21 25 26 28 30 30 29 29 29 28 28 27 26 25 24 23 22 22 21 22 22 22 23 22 22 22 22
26 26 26 25 26 25 24 23 22 19 18 17 14 12 11 13 19 24 25 25 27 28 28 27 26 25 25 25 26 26 25 24 22 20 20 20 24 27 28 29 31 31 30 30 30 29 29 28 27 26 25 24 23 22 22 22 22 23 23 23 22 22
27 27 27 26 26 25 24 23 22 20 19 18 16 14 13 15 18 22 24 25 26 28 29 30 30 29 28 27 26 27 27 26 24 22 21 21 22 26 28 29 30 32 31 31 31 31 30 29 29 28 27 25 25 24 23 22 22 22 23 23 23 22
28 28 28 27 26 26 25 23 22 21 20 19 18 17 17 17 18 20 23 25 27 29 30 31 32 33 32 31 29 28 28 28 27 25 23 22 21 23 27 30 30 32 33 32 32 32 32 31 30 30 29 28 27 26 25 24 23 23 23 23 23 23
29 29 29 29 28 27 26 24 23 22 22 21 20 18 19 19 20 21 22 24 26 29 32 32 32 34 36 35 32 31 30 30 30 28 26 24 22 21 24 28 31 32 33 33 33 33 33 32 32 31 30 29 29 28 27 26 26 25 24 24 24 24
31 30 30 30 29 28 27 26 24 23 23 23 21 20 20 21 21 21 22 23 24 26 31 33 32 32 36 37 34 33 32 32 32 31 29 27 25 23 22 25 30 32 33 33 34 34 34 34 33 33 32 31 31 29 28 28 27 27 26 25 25 25
33 32 32 31 30 29 28 27 26 25 25 25 24 23 22 22 22 23 23 24 24 24 26 30 32 32 35 37 36 37 36 34 34 33 32 30 28 26 24 23 26 30 33 34 35 35 36 36 35 35 34 33 32 31 30 29 29 28 27 27 26 26
34 34 33 33 32 31 30 29 28 27 27 27 26 26 25 25 25 25 26 26 25 24 24 26 30 33 35 37 39 39 39 38 36 35 34 33 31 29 27 25 24 27 31 33 34 35 36 37 37 36 36 35 33 32 31 31 31 30 29 28 28 27
35 35 35 35 34 33 32 31 30 30 29 29 29 28 27 27 28 28 28 28 26 25 25 26 28 31 32 35 39 41 42 41 40 37 36 36 34 32 30 28 26 25 27 31 34 35 36 38 38 38 37 36 35 34 33 33 32 32 31 31 30 29
36 36 36 35 35 35 34 33 32 32 32 31 31 31 30 29 30 30 30 30 29 28 28 28 28 29 29 31 36 41 44 44 43 41 39 38 37 35 33 31 29 28 27 29 32 34 36 37 38 39 38 37 37 36 35 35 34 34 33 33 32 31
36 36 36 35 35 35 35 34 33 33 33 33 33 33 32 32 31 32 32 32 32 32 31 30 29 30 30 29 31 36 42 44 45 45 43 40 39 38 36 34 33 31 30 29 30 33 36 37 37 38 39 39 39 38 38 37 36 35 35 34 33 33
32 33 34 34 33 34 34 33 33 33 33 34 35 35 34 34 33 33 33 33 34 33 33 32 32 32 31 30 30 32 37 42 44 46 46 43 42 41 39 37 36 35 33 32 31 32 34 37 38 38 39 40 40 40 40 39 38 37 37 35 35 34
30 31 31 32 31 32 32 31 31 31 31 32 34 35 35 35 34 33 34 34 34 34 34 33 33 33 32 31 32 31 33 39 43 45 47 46 45 44 42 40 39 38 37 37 35 33 33 35 38 39 39 40 40 41 41 40 40 39 38 37 36 35
29 29 30 31 30 30 30 31 30 30 30 31 32 33 35 36 35 34 34 34 34 35 35 34 33 33 33 33 32 32 33 36 40 44 46 48 48 46 45 43 42 42 41 41 39 37 35 35 37 39 40 40 40 41 42 42 41 41 40 39 38 36
27 27 28 29 30 29 29 30 30 30 30 31 31 32 33 35 35 35 34 34 35 35 35 35 35 34 35 34 33 34 35 36 38 41 44 46 48 47 47 46 46 45 45 43 42 41 39 37 37 38 40 40 40 41 41 42 42 42 41 40 39 38
26 26 26 27 28 28 29 29 30 30 30 31 31 32 33 34 35 35 35 35 35 36 36 36 36 37 37 36 36 36 37 38 39 39 40 42 44 47 49 50 49 48 47 46 45 44 43 41 38 37 39 41 42 42 42 42 42 42 42 41 40 40
27 27 26 26 26 27 28 29 29 30 30 31 31 32 32 33 34 34 35 35 35 36 37 38 38 38 39 38 38 39 38 39 40 40 40 40 40 42 45 49 52 52 50 48 47 46 45 44 42 39 39 41 42 43 43 43 42 42 42 42 42 42
27 28 28 27 27 27 28 29 29 30 30 31 31 31 32 33 34 34 34 35 35 36 37 39 39 39 41 41 40 40 40 40 40 40 41 41 39 38 38 43 51 56 55 51 49 48 47 45 45 44 41 40 41 42 44 43 43 43 42 42 42 43
29 29 29 29 29 29 29 29 29 30 30 31 31 32 32 33 34 35 35 35 35 36 37 39 40 41 42 42 42 42 42 43 42 42 42 42 41 41 39 39 47 56 57 54 52 51 48 48 49 48 45 42 42 42 42 43 43 44 44 44 43 44
30 30 30 30 30 31 31 31 31 30 31 31 32 32 32 33 34 35 36 36 36 36 37 39 40 41 42 43 45 45 45 45 45 45 45 44 44 44 43 42 44 50 55 54 54 54 52 51 51 51 49 46 44 43 41 43 44 44 46 46 45 45
30 30 30 30 30 31 32 32 33 32 32 33 33 33 33 33 34 35 37 38 38 38 38 39 40 41 42 44 45 47 47 48 48 48 48 48 47 47 46 46 44 46 51 52 52 55 55 53 53 53 52 50 48 45 43 44 44 44 46 47 47 47
30 30 31 30 30 31 32 33 34 34 34 34 35 34 34 34 34 35 37 38 39 40 40 40 40 41 42 43 45 47 49 50 51 51 51 50 50 50 49 48 47 46 50 52 51 55 57 55 54 54 53 53 52 49 47 47 45 45 46 46 47 48
31 31 31 31 31 32 33 34 35 35 35 35 35 36 36 36 36 36 37 38 39 41 42 42 41 42 43 44 44 46 48 51 52 53 53 53 52 52 51 50 50 49 50 53 51 53 58 57 53 53 53 54 54 53 52 51 48 48 47 46 47 48
33 33 33 33 33 33 34 35 36 36 36 35 36 36 36 37 38 38 37 38 39 41 42 43 44 43 44 45 45 46 48 50 52 54 55 55 54 54 54 52 51 51 51 52 50 49 56 60 55 51 52 53 54 56 56 54 52 50 48 47 47 47
35 34 34 34 34 34 35 36 37 37 37 37 37 37 38 38 39 39 40 40 40 41 42 43 44 45 45 46 47 47 48 49 51 53 55 56 57 56 56 55 53 52 52 52 49 46 50 59 59 53 51 53 54 55 57 57 55 53 51 50 49 48
36 36 36 36 36 36 36 37 38 39 39 39 39 40 40 40 39 40 41 42 42 42 43 43 44 46 46 47 48 48 49 49 50 52 54 56 57 58 58 58 56 55 54 52 51 47 45 53 59 56 51 52 53 54 56 59 57 56 55 54 52 50
37 37 37 37 38 38 38 39 40 41 41 41 41 41 42 42 41 41 42 43 43 44 44 44 45 46 47 47 48 49 50 50 50 51 53 55 56 58 59 60 59 58 56 54 53 51 46 47 56 60 54 49 50 52 53 58 61 60 58 56 55 54
39 39 39 39 40 40 40 40 41 41 42 42 42 42 43 44 44 43 43 44 45 45 45 46 46 46 47 47 48 48 49 51 51 51 52 53 55 57 58 60 61 61 60 57 55 54 51 48 50 57 58 51 51 52 50 52 58 61 61 59 58 57
41 41 40 41 41 41 41 41 42 42 42 43 43 43 44 44 45 45 45 45 46 46 47 47 47 47 47 48 48 48 48 49 51 51 52 52 53 55 56 59 61 63 62 61 58 56 55 51 47 49 53 51 51 54 53 52 53 57 61 61 60 59
42 42 42 42 42 42 42 43 43 42 42 43 43 43 44 44 45 45 46 46 47 47 47 48 48 48 48 48 48 48 49 49 50 50 51 52 53 53 54 56 59 62 64 64 62 60 58 56 52 50 50 51 51 52 53 54 54 55 57 61 62 61
43 42 43 43 43 43 43 43 43 43 42 42 43 44 44 44 44 45 46 46 47 48 48 48 48 48 48 48 48 48 49 49 50 50 51 51 52 53 54 54 56 59 63 65 65 64 62 60 59 56 55 55 56 53 51 53 55 55 55 58 62 63
43 43 43 43 43 43 43 44 44 43 43 42 43 44 44 44 43 44 45 45 46 47 48 48 48 48 48 48 48 49 49 50 50 51 51 51 52 53 54 54 54 56 59 64 66 66 66 64 62 62 60 60 59 56 54 54 54 54 54 56 59 62
Wind_Direction
265 262 264 268 273 276 280 281 282 284 283 280 273 265 257 247 236 232 231 230 227 221 216 213 211 211 211 214 216 215 213 213 209 195 189 190 187 183 185 187 185 186 187 187 188 189 185 182 182 183 182 181 180 178 177 177 178 179 178 177 177 177
263 262 263 267 271 274 278 281 283 287 286 282 276 269 260 249 238 231 228 226 225 222 218 215 215 216 215 215 215 215 214 214 213 201 190 190 190 186 187 189 187 187 189 190 191 193 192 189 188 189 189 187 183 181 180 179 178 179 180 180 181 181
262 263 265 267 271 274 276 280 283 286 286 281 275 271 263 248 236 229 226 223 222 221 218 214 213 218 218 215 214 214 214 214 217 209 196 192 192 190 190 191 191 188 189 192 193 195 196 195 195 194 194 193 189 185 183 183 182 181 182 184 185 185
262 264 266 268 269 272 274 276 279 281 280 279 273 270 267 247 229 224 223 222 221 219 218 216 213 217 220 215 212 214 214 213 218 216 205 198 195 193 192 193 194 192 191 192 195 196 198 199 200 199 199 199 196 192 188 188 189 188 188 188 189 190
261 262 265 267 268 269 269 270 271 274 274 273 269 268 271 247 222 218 222 222 222 219 218 219 215 216 221 219 213 213 213 213 217 218 213 206 201 197 195 194 197 197 194 193 195 198 200 202 204 203 202 203 202 199 195 193 194 195 195 194 194 195
260 261 262 265 267 267 266 267 266 266 266 264 261 262 267 240 214 214 221 222 222 220 219 220 217 216 221 224 218 214 213 215 217 218 217 214 209 205 200 196 197 200 198 196 196 199 201 203 206 207 205 206 207 206 204 200 198 199 201 201 201 201
261 262 262 262 265 265 265 265 264 261 259 256 253 251 248 229 214 217 222 223 223 221 221 220 219 218 221 226 224 217 214 215 217 218 220 218 215 212 207 201 198 201 203 200 198 200 202 204 207 209 208 208 209 210 210 207 205 204 205 206 207 207
262 262 262 262 262 264 263 264 264 260 256 253 249 242 232 224 220 224 227 228 226 223 221 221 220 220 222 225 228 224 218 217 218 220 222 222 220 217 214 208 202 202 205 204 201 201 203 205 208 210 210 211 211 211 212 212 211 210 209 210 210 211
262 263 263 262 261 262 262 262 263 260 257 251 246 239 232 226 224 228 230 231 230 225 222 222 221 221 222 224 227 228 224 220 220 221 224 225 223 221 219 216 209 205 205 207 205 204 205 205 208 210 211 212 213 213 212 213 214 214 213 213 212 213
263 263 263 262 261 261 261 262 262 261 259 253 245 238 233 231 229 229 231 233 232 227 225 224 224 222 223 224 225 227 227 222 220 221 223 226 225 223 223 222 217 210 207 208 209 208 207 207 208 210 212 212 214 215 214 213 214 214 214 213 213 213
262 262 262 262 261 260 261 261 261 260 261 259 253 244 236 235 234 233 234 236 235 232 229 228 228 226 225 227 226 226 227 225 222 220 222 225 225 223 223 225 224 219 213 210 211 211 210 210 210 211 213 213 215 216 215 215 215 215 215 215 214 213
261 261 261 261 260 259 259 259 259 258 258 259 256 251 245 241 239 238 238 237 236 236 233 230 230 229 227 228 228 227 227 226 223 221 221 222 225 225 223 225 227 226 221 215 213 213 212 212 212 212 213 214 215 216 216 216 217 217 216 216 215 215
259 259 259 259 259 258 257 257 257 257 255 255 255 252 249 246 244 242 241 239 234 232 233 231 230 231 229 227 228 229 228 227 226 223 221 222 224 226 226 226 227 230 229 224 219 216 214 214 214 214 215 216 216 217 217 217 219 219 217 216 216 216
258 258 257 257 258 257 256 256 256 256 255 254 254 252 249 246 244 243 242 242 238 233 232 231 230 232 231 228 227 228 229 228 227 225 222 222 223 226 228 228 228 230 232 231 228 223 219 216 216 216 217 217 217 218 218 218 219 220 219 217 217 218
258 258 257 256 256 256 255 255 255 256 256 254 254 253 250 246 244 242 241 241 241 239 237 236 234 233 232 231 229 228 229 228 226 225 223 222 223 226 228 230 230 230 231 232 232 230 226 222 219 218 218 219 219 220 219 219 220 221 221 219 219 219
257 258 258 258 257 257 256 255 255 255 256 256 254 253 252 249 245 244 242 241 240 239 240 240 239 238 235 234 236 233 230 227 225 224 224 222 223 225 227 230 232 232 231 231 232 233 231 229 225 221 220 220 220 221 222 221 221 222 223 222 221 221
256 257 257 258 257 257 257 256 255 254 255 256 256 254 253 251 248 246 244 243 242 241 241 241 241 241 239 236 238 238 230 225 224 223 223 223 223 224 226 228 232 233 234 233 232 232 233 232 230 227 224 222 222 222 223 223 222 223 225 225 224 224
255 256 256 257 257 257 258 257 256 254 253 254 255 255 254 252 250 248 246 244 245 244 242 241 241 241 243 240 235 236 232 225 224 224 223 224 224 224 225 227 231 234 235 235 233 232 232 233 232 230 228 226 225 225 225 225 224 224 225 226 227 226
253 254 256 257 257 257 257 258 258 256 255 253 253 254 253 252 250 248 246 245 245 246 244 243 242 240 242 241 235 234 234 228 225 225 224 225 226 225 225 227 230 233 235 236 235 233 232 233 233 232 230 229 228 227 227 227 227 227 226 226 228 229
251 251 252 254 256 257 257 257 258 257 256 255 254 253 253 252 251 249 247 245 244 245 245 244 243 241 239 239 238 235 234 231 228 227 226 227 229 229 228 230 232 233 234 235 236 235 234 233 233 232 232 231 231 230 230 230 230 230 229 228 228 230
254 252 250 250 252 254 255 256 256 257 256 256 255 254 253 253 252 251 249 246 244 244 244 244 243 242 239 237 236 237 235 233 231 230 230 229 231 232 231 232 234 235 235 236 236 236 235 234 233 233 232 232 232 232 231 231 232 232 232 232 231 231
259 258 257 254 252 252 254 255 255 256 257 257 256 255 254 254 253 252 250 248 246 244 243 243 242 241 241 237 234 235 235 235 234 232 232 231 230 233 233 232 235 236 236 237 238 237 236 236 235 234 233 232 231 232 232 232 233 233 233 233 234 234
263 263 263 262 260 257 256 257 257 257 258 257 257 257 256 256 255 254 251 249 247 246 244 243 242 240 240 239 236 234 232 234 236 235 234 231 230 234 236 234 235 235 234 235 238 239 237 237 236 235 234 234 233 233 233 233 234 234 234 234 233 234
266 266 266 266 265 264 262 261 260 260 260 260 259 258 258 257 257 256 254 251 248 246 245 244 242 241 240 240 238 236 233 232 234 236 236 234 233 235 238 238 237 235 233 233 236 238 238 236 236 236 235 235 235 234 233 234 235 236 236 235 234 235
267 267 267 268 268 269 268 267 266 266 265 264 262 261 260 259 258 258 257 255 251 247 245 245 244 242 240 240 239 237 235 233 232 233 235 236 236 237 238 239 239 235 232 233 235 236 236 236 236 235 235 235 236 235 235 235 235 236 237 237 237 236
268 268 268 268 269 270 271 272 272 271 270 269 268 265 263 261 260 259 259 258 255 252 247 245 245 244 242 240 239 238 237 236 234 233 233 235 236 237 238 239 241 238 231 231 233 233 234 235 236 235 234 236 237 236 236 237 236 236 237 237 238 237
267 267 267 267 267 268 269 270 270 271 272 272 271 270 267 264 261 259 259 258 257 256 252 248 245 245 244 242 241 240 238 237 237 236 234 234 235 237 238 239 241 241 233 230 232 232 231 232 234 235 234 235 237 237 237 237 237 237 237 237 238 238
267 266 266 266 266 267 267 268 269 269 269 270 271 272 271 269 266 262 259 258 257 256 255 253 249 246 245 245 243 242 241 239 238 238 237 236 236 237 238 238 240 241 238 234 234 233 229 229 232 234 234 235 236 237 239 239 238 238 237 237 238 239
268 267 267 267 266 267 269 269 270 270 270 270 270 270 271 271 270 267 263 259 257 256 255 255 253 250 247 246 245 244 243 242 240 239 239 238 237 237 238 239 239 241 242 241 241 238 230 227 229 231 232 234 235 236 239 240 240 240 239 239 239 239
272 272 271 271 271 271 272 273 274 274 273 273 271 270 269 268 269 268 267 264 260 257 256 255 254 253 250 248 246 245 244 244 243 241 240 239 238 238 238 240 240 241 243 243 244 242 232 226 227 229 231 232 234 237 238 240 241 242 242 241 240 240
276 276 277 277 277 277 277 277 277 276 276 275 274 272 271 268 267 266 266 265 263 260 258 256 254 253 252 250 248 247 246 244 244 243 242 240 239 239 238 240 241 240 242 243 241 240 236 230 228 227 229 231 232 236 240 240 241 241 242 242 241 241
278 278 279 280 280 280 280 279 278 277 276 275 274 273 272 271 268 266 265 264 263 262 260 257 255 254 253 252 250 248 247 246 245 244 243 242 241 239 238 239 240 240 240 242 240 238 238 236 232 227 227 231 230 232 238 240 239 239 241 241 241 241
279 279 280 280 280 279 279 278 277 276 275 275 274 272 272 271 270 268 265 264 263 262 261 259 257 255 253 252 251 249 248 247 246 245 244 243 242 241 239 238 239 240 240 240 240 238 237 239 236 228 227 231 230 230 236 240 238 237 238 239 240 241
279 280 280 280 279 278 277 276 275 274 273 273 272 271 270 270 269 268 266 265 264 263 262 261 259 257 255 253 252 250 249 248 247 246 245 244 243 243 241 238 238 238 239 240 239 238 238 238 235 229 228 232 232 233 238 242 241 237 236 237 238 239
280 281 281 280 280 278 277 275 274 272 271 270 269 269 269 268 268 267 266 265 264 263 262 262 261 259 258 255 253 251 250 249 248 248 247 246 244 244 243 241 238 237 238 240 239 238 237 236 235 232 232 234 236 237 238 241 244 242 238 237 237 236
281 281 281 281 280 278 277 275 274 272 269 267 267 267 267 267 267 266 266 265 264 263 262 261 261 260 259 258 256 254 252 250 249 248 248 248 246 245 245 244 241 239 237 238 239 238 237 236 235 236 236 235 236 238 239 240 243 244 241 237 237 236
281 282 281 281 280 279 277 276 274 272 270 267 266 265 265 266 266 265 265 264 263 263 262 261 260 259 259 258 257 257 255 254 252 250 249 249 248 247 247 246 244 242 239 238 238 238 238 237 236 235 236 236 236 237 239 241 242 242 240 238 236 235
Height
5829 5830 5829 5829 5829 5830 5832 5833 5834 5834 5835 5835 5835 5836 5837 5838 5839 5841 5843 5845 5847 5850 5851 5853 5854 5855 5857 5858 5859 5859 5859 5860 5861 5862 5862 5863 5864 5865 5866 5868 5870 5871 5872 5872 5873 5874 5875 5876 5877 5878 5878 5879 5879 5879 5880 5881 5883 5884 5885 5887 5888 5889
5827 5827 5828 5828 5828 5829 5830 5831 5831 5832 5832 5832 5832 5833 5834 5836 5837 5839 5841 5843 5846 5848 5850 5851 5852 5854 5856 5856 5857 5858 5858 5859 5860 5860 5861 5862 5863 5864 5865 5866 5868 5869 5871 5871 5872 5873 5874 5875 5875 5876 5877 5878 5878 5879 5880 5881 5882 5883 5885 5886 5888 5889
5825 5825 5826 5827 5827 5828 5829 5829 5830 5830 5830 5831 5831 5831 5831 5833 5835 5837 5839 5841 5843 5846 5848 5849 5851 5852 5854 5855 5856 5856 5857 5857 5858 5859 5860 5860 5861 5862 5864 5865 5867 5868 5869 5870 5871 5872 5873 5874 5874 5875 5876 5877 5878 5879 5880 5881 5882 5883 5884 5885 5887 5888
5824 5824 5824 5825 5825 5826 5827 5828 5828 5829 5829 5829 5829 5829 5829 5829 5831 5834 5837 5839 5841 5844 5845 5847 5849 5850 5852 5854 5855 5855 5855 5856 5857 5858 5859 5860 5860 5861 5862 5864 5866 5867 5868 5869 5870 5871 5872 5873 5873 5874 5875 5876 5877 5878 5879 5880 5881 5882 5883 5884 5886 5887
5823 5823 5823 5823 5823 5824 5826 5826 5827 5827 5827 5828 5828 5827 5827 5826 5828 5832 5834 5836 5839 5841 5843 5845 5847 5849 5850 5851 5853 5853 5854 5855 5856 5856 5858 5859 5860 5860 5861 5862 5864 5866 5866 5868 5869 5870 5870 5871 5872 5873 5874 5875 5876 5877 5878 5879 5880 5881 5882 5883 5884 5885
5821 5821 5822 5821 5821 5822 5823 5824 5825 5826 5826 5826 5826 5826 5825 5825 5827 5830 5832 5834 5837 5839 5841 5843 5845 5847 5848 5849 5851 5852 5853 5854 5854 5855 5856 5858 5859 5860 5860 5861 5862 5864 5865 5866 5867 5868 5869 5870 5871 5872 5873 5874 5875 5876 5877 5878 5879 5880 5882 5883 5883 5884
5820 5820 5820 5820 5819 5820 5821 5821 5822 5824 5824 5824 5825 5825 5825 5825 5826 5828 5830 5832 5834 5836 5839 5841 5843 5845 5846 5847 5849 5850 5852 5852 5853 5854 5855 5856 5858 5859 5860 5860 5861 5862 5864 5865 5866 5867 5868 5868 5869 5870 5871 5872 5874 5875 5876 5877 5878 5879 5880 5881 5882 5883
5817 5817 5817 5818 5818 5818 5818 5819 5820 5821 5822 5823 5823 5824 5825 5825 5826 5827 5828 5830 5832 5834 5836 5838 5840 5842 5844 5845 5846 5848 5850 5851 5852 5853 5853 5855 5856 5858 5859 5859 5860 5861 5862 5863 5864 5865 5866 5867 5868 5869 5870 5871 5872 5874 5875 5876 5877 5878 5879 5880 5881 5882
5815 5815 5815 5815 5815 5815 5816 5817 5817 5818 5819 5821 5822 5822 5823 5824 5825 5826 5827 5828 5829 5831 5833 5835 5837 5839 5841 5843 5844 5846 5848 5850 5851 5851 5852 5853 5854 5856 5857 5858 5859 5859 5860 5861 5862 5863 5864 5865 5866 5867 5868 5869 5871 5872 5873 5874 5876 5877 5878 5879 5880 5881
5812 5812 5812 5812 5813 5813 5814 5815 5816 5816 5816 5818 5819 5820 5821 5822 5823 5824 5825 5826 5827 5829 5830 5832 5833 5835 5837 5839 5841 5844 5846 5847 5848 5849 5850 5851 5853 5854 5856 5857 5858 5858 5858 5859 5860 5862 5863 5864 5865 5865 5866 5868 5869 5870 5871 5873 5874 5875 5876 5877 5878 5879
5809 5810 5810 5810 5810 5811 5812 5812 5814 5814 5814 5815 5816 5818 5819 5820 5821 5822 5823 5824 5826 5827 5828 5829 5831 5832 5834 5835 5838 5841 5843 5844 5846 5847 5848 5849 5851 5852 5854 5855 5856 5857 5857 5857 5858 5859 5861 5862 5863 5864 5865 5866 5867 5868 5870 5871 5872 5873 5874 5876 5877 5878
5806 5806 5807 5807 5807 5808 5809 5810 5811 5811 5811 5812 5813 5815 5816 5817 5818 5819 5820 5822 5823 5825 5826 5828 5829 5830 5831 5832 5835 5837 5839 5841 5843 5845 5846 5847 5848 5850 5851 5853 5854 5855 5856 5856 5856 5857 5859 5860 5861 5862 5863 5864 5865 5867 5868 5869 5870 5872 5873 5874 5875 5876
5803 5803 5803 5804 5804 5805 5806 5807 5807 5808 5809 5809 5810 5811 5813 5814 5815 5817 5818 5819 5821 5822 5823 5825 5826 5827 5828 5830 5832 5834 5836 5838 5840 5842 5843 5845 5846 5847 5849 5850 5852 5853 5854 5855 5855 5855 5856 5858 5859 5860 5861 5862 5863 5865 5866 5867 5868 5869 5871 5872 5873 5875
5799 5800 5800 5800 5801 5802 5803 5803 5804 5805 5806 5806 5807 5808 5809 5810 5812 5813 5815 5816 5818 5819 5820 5821 5823 5824 5825 5827 5829 5831 5832 5834 5836 5838 5840 5842 5844 5845 5846 5848 5849 5850 5852 5853 5854 5854 5854 5855 5857 5858 5859 5860 5862 5863 5864 5865 5866 5867 5869 5870 5871 5873
5795 5796 5796 5797 5798 5798 5799 5800 5801 5801 5802 5803 5803 5804 5806 5807 5808 5809 5810 5812 5814 5816 5817 5818 5820 5821 5823 5824 5825 5826 5828 5830 5832 5834 5837 5839 5841 5842 5844 5845 5846 5848 5849 5850 5851 5852 5853 5853 5854 5855 5857 5858 5859 5861 5862 5863 5864 5865 5866 5868 5869 5871
5791 5792 5793 5794 5794 5795 5796 5797 5798 5798 5798 5799 5800 5801 5802 5803 5805 5805 5807 5808 5809 5811 5813 5815 5817 5818 5820 5821 5822 5822 5823 5825 5828 5830 5833 5835 5837 5839 5841 5842 5843 5845 5846 5848 5849 5850 5851 5851 5852 5853 5854 5855 5857 5858 5859 5860 5862 5863 5864 5865 5867 5868
5788 5789 5789 5790 5791 5791 5792 5793 5794 5795 5796 5796 5796 5797 5799 5800 5801 5802 5803 5804 5805 5807 5809 5811 5813 5814 5816 5817 5818 5818 5819 5821 5823 5826 5828 5831 5833 5835 5837 5839 5840 5842 5843 5845 5846 5847 5848 5849 5850 5851 5852 5852 5853 5855 5856 5858 5859 5860 5861 5863 5865 5866
5785 5785 5786 5787 5787 5788 5788 5789 5790 5791 5792 5793 5793 5793 5794 5796 5797 5798 5799 5800 5801 5802 5805 5806 5808 5810 5812 5813 5814 5815 5816 5817 5819 5821 5824 5826 5829 5831 5834 5835 5837 5838 5839 5841 5843 5844 5845 5846 5847 5848 5849 5850 5851 5852 5853 5855 5856 5857 5859 5860 5862 5864
5782 5782 5783 5783 5784 5785 5785 5786 5786 5787 5788 5789 5789 5789 5790 5791 5793 5794 5795 5797 5797 5799 5800 5802 5803 5805 5807 5808 5810 5812 5813 5814 5815 5817 5819 5822 5824 5827 5830 5832 5833 5834 5835 5837 5839 5841 5842 5842 5843 5845 5846 5847 5848 5850 5851 5852 5854 5855 5856 5858 5859 5861
5778 5779 5780 5780 5781 5782 5782 5782 5783 5784 5784 5785 5785 5786 5786 5787 5788 5790 5791 5793 5794 5795 5796 5798 5799 5801 5802 5804 5807 5808 5809 5811 5811 5813 5816 5818 5820 5823 5826 5827 5828 5829 5830 5833 5835 5838 5839 5839 5840 5841 5843 5844 5846 5847 5848 5849 5851 5853 5854 5855 5857 5858
5775 5775 5776 5777 5778 5778 5779 5779 5779 5780 5780 5781 5782 5782 5782 5783 5784 5785 5787 5789 5790 5791 5792 5794 5795 5796 5797 5800 5802 5803 5805 5806 5807 5809 5812 5814 5817 5819 5821 5822 5823 5824 5826 5828 5831 5833 5835 5835 5837 5838 5839 5840 5842 5843 5845 5846 5847 5849 5851 5853 5855 5855
5771 5771 5772 5774 5775 5775 5775 5776 5776 5776 5777 5777 5778 5778 5779 5779 5780 5781 5783 5784 5786 5787 5788 5789 5791 5792 5793 5795 5797 5798 5800 5801 5802 5805 5807 5809 5812 5813 5816 5818 5819 5820 5822 5824 5826 5828 5831 5833 5834 5834 5834 5836 5838 5839 5841 5842 5844 5845 5847 5850 5851 5852
5767 5767 5768 5769 5770 5771 5772 5772 5772 5773 5773 5773 5774 5774 5775 5776 5776 5777 5778 5780 5781 5782 5783 5784 5786 5787 5788 5790 5792 5793 5795 5796 5798 5800 5802 5805 5807 5808 5811 5814 5815 5815 5817 5820 5821 5823 5827 5830 5830 5830 5831 5832 5834 5835 5837 5839 5840 5842 5843 5845 5846 5848
5763 5764 5764 5765 5766 5767 5767 5768 5768 5769 5769 5769 5770 5771 5771 5772 5772 5772 5774 5775 5777 5777 5778 5780 5781 5783 5784 5785 5787 5788 5790 5791 5793 5795 5798 5800 5802 5804 5805 5808 5809 5810 5812 5815 5816 5818 5822 5824 5825 5826 5828 5829 5830 5831 5833 5835 5836 5837 5838 5840 5841 5843
5760 5760 5761 5761 5761 5762 5762 5763 5764 5764 5765 5765 5766 5767 5767 5768 5769 5769 5769 5770 5772 5773 5774 5775 5776 5778 5780 5781 5782 5784 5785 5787 5788 5790 5793 5795 5797 5799 5800 5801 5802 5804 5807 5810 5812 5813 5816 5818 5820 5822 5824 5825 5825 5827 5830 5830 5831 5832 5834 5835 5837 5839
5756 5757 5757 5758 5758 5758 5757 5758 5758 5759 5759 5760 5760 5762 5763 5764 5764 5765 5765 5765 5766 5768 5769 5770 5771 5773 5775 5776 5778 5779 5780 5782 5783 5785 5788 5790 5792 5793 5795 5796 5797 5799 5802 5804 5806 5808 5810 5813 5815 5817 5820 5821 5822 5825 5825 5824 5826 5828 5829 5831 5833 5834
5752 5753 5754 5754 5755 5754 5754 5754 5754 5754 5755 5755 5755 5756 5757 5758 5759 5760 5760 5761 5761 5762 5763 5765 5767 5768 5769 5771 5772 5774 5775 5777 5779 5780 5782 5784 5786 5788 5789 5791 5793 5795 5797 5799 5801 5803 5805 5807 5809 5811 5815 5817 5818 5821 5820 5820 5822 5823 5824 5827 5828 5829
5748 5749 5749 5750 5750 5750 5750 5750 5750 5750 5750 5750 5750 5750 5751 5751 5753 5754 5755 5755 5756 5756 5757 5759 5761 5762 5764 5765 5766 5768 5770 5771 5773 5775 5777 5779 5781 5782 5784 5786 5788 5789 5791 5794 5796 5797 5799 5802 5803 5806 5809 5811 5813 5815 5815 5816 5818 5818 5819 5822 5823 5825
5743 5744 5745 5746 5746 5746 5746 5745 5745 5745 5745 5746 5746 5746 5746 5746 5746 5747 5749 5750 5750 5751 5752 5753 5754 5756 5758 5759 5760 5762 5763 5765 5767 5769 5771 5773 5775 5777 5778 5780 5782 5784 5785 5788 5790 5791 5793 5796 5798 5800 5802 5804 5807 5809 5810 5812 5813 5814 5816 5818 5819 5820
5739 5739 5740 5741 5741 5742 5742 5741 5741 5740 5740 5740 5740 5740 5741 5741 5741 5741 5742 5743 5744 5745 5746 5747 5748 5750 5752 5753 5754 5755 5757 5758 5760 5762 5764 5766 5769 5771 5772 5774 5776 5778 5779 5781 5783 5785 5787 5790 5792 5794 5795 5797 5800 5803 5805 5807 5809 5812 5813 5814 5815 5816
5734 5734 5735 5735 5736 5737 5737 5736 5736 5735 5735 5735 5735 5735 5735 5735 5736 5736 5736 5736 5737 5739 5740 5741 5742 5743 5745 5747 5748 5750 5751 5752 5753 5755 5756 5759 5762 5764 5767 5768 5770 5771 5773 5775 5777 5780 5782 5784 5786 5788 5789 5791 5794 5797 5799 5802 5805 5806 5807 5809 5811 5812
5729 5729 5730 5730 5731 5731 5731 5731 5731 5730 5730 5730 5729 5729 5729 5729 5730 5731 5731 5731 5731 5732 5733 5735 5736 5737 5738 5739 5742 5743 5744 5745 5747 5748 5749 5751 5754 5757 5760 5762 5763 5765 5767 5769 5772 5774 5776 5778 5780 5781 5784 5786 5788 5792 5793 5795 5798 5799 5801 5804 5806 5806
5724 5725 5726 5726 5726 5726 5727 5726 5726 5725 5724 5724 5724 5724 5723 5723 5723 5724 5725 5725 5725 5726 5726 5728 5729 5731 5732 5733 5734 5736 5738 5739 5740 5742 5743 5744 5746 5749 5752 5755 5756 5759 5761 5763 5766 5768 5770 5772 5773 5775 5778 5781 5783 5786 5788 5788 5790 5792 5795 5798 5800 5802
5719 5720 5721 5721 5721 5721 5722 5721 5721 5720 5719 5719 5719 5718 5718 5717 5717 5717 5718 5719 5719 5720 5720 5721 5722 5723 5725 5726 5727 5729 5731 5733 5734 5735 5737 5738 5740 5741 5744 5747 5749 5752 5754 5757 5759 5762 5764 5765 5767 5770 5773 5776 5779 5781 5783 5783 5784 5786 5789 5792 5795 5797
5714 5715 5716 5716 5716 5716 5716 5716 5716 5715 5715 5714 5713 5713 5712 5712 5712 5712 5712 5713 5713 5714 5714 5715 5716 5717 5718 5719 5721 5722 5724 5726 5727 5729 5730 5732 5733 5735 5736 5739 5742 5744 5747 5750 5752 5756 5758 5760 5762 5764 5767 5770 5773 5775 5778 5780 5779 5781 5785 5786 5788 5792
5709 5710 5710 5710 5710 5710 5710 5710 5710 5710 5710 5710 5709 5708 5707 5707 5707 5706 5706 5707 5707 5707 5708 5709 5710 5710 5711 5712 5714 5715 5717 5718 5720 5722 5724 5725 5727 5729 5730 5731 5734 5737 5740 5742 5745 5749 5751 5754 5756 5758 5760 5763 5766 5769 5773 5775 5775 5776 5779 5781 5782 5786
5704 5704 5704 5704 5704 5704 5704 5704 5704 5704 5704 5704 5704 5703 5702 5702 5701 5701 5701 5701 5701 5701 5702 5702 5703 5704 5705 5706 5707 5708 5710 5711 5713 5715 5717 5719 5720 5722 5723 5725 5727 5730 5732 5735 5738 5741 5744 5747 5750 5752 5754 5757 5760 5763 5766 5768 5770 5771 5772 5774 5777 5781